| time (UTC) | temp F | wind direction | speed MPH | gust MPH | rain 1hr in | rain 24hr in | rain mn in | humidity % | barometer mb |
| 20260507141507 | 55 | 282 | 5.0 | 13.0 | 0.00 | 0.19 | 0.01 | 59 | 1007.1 |
| 20260507140016 | 55 | 335 | 3.0 | 9.0 | 0.00 | 0.19 | 0.01 | 59 | 1006.9 |
| 20260507134519 | 55 | 30 | 6.0 | 11.0 | 0.00 | 0.19 | 0.01 | 58 | 1007.0 |
| 20260507133004 | 54 | 359 | 4.0 | 13.0 | 0.00 | 0.19 | 0.01 | 61 | 1007.0 |
| 20260507131509 | 54 | 1 | 4.0 | 9.0 | 0.00 | 0.19 | 0.01 | 62 | 1007.2 |
| 20260507130011 | 54 | 5 | 3.0 | 6.0 | 0.00 | 0.19 | 0.01 | 66 | 1007.3 |
| 20260507124516 | 53 | 50 | 3.0 | 7.0 | 0.00 | 0.19 | 0.01 | 67 | 1007.4 |
| 20260507123023 | 52 | 45 | 1.0 | 7.0 | 0.00 | 0.19 | 0.01 | 71 | 1007.3 |
| 20260507121503 | 51 | 333 | 4.0 | 9.0 | 0.00 | 0.19 | 0.01 | 73 | 1007.4 |
| 20260507120008 | 50 | 25 | 2.0 | 4.0 | 0.00 | 0.19 | 0.01 | 76 | 1007.4 |
| 20260507114516 | 49 | 12 | 4.0 | 7.0 | 0.00 | 0.19 | 0.01 | 78 | 1007.4 |
| 20260507113025 | 49 | 355 | 2.0 | 6.0 | 0.00 | 0.19 | 0.01 | 79 | 1007.3 |
| 20260507111523 | 49 | 359 | 2.0 | 6.0 | 0.00 | 0.19 | 0.01 | 80 | 1007.2 |
| 20260507110007 | 48 | 35 | 0.0 | 3.0 | 0.00 | 0.19 | 0.01 | 80 | 1007.2 |
| 20260507104511 | 48 | 37 | 2.0 | 5.0 | 0.00 | 0.19 | 0.01 | 81 | 1006.8 |
| 20260507103016 | 48 | 358 | 2.0 | 6.0 | 0.00 | 0.19 | 0.01 | 81 | 1006.7 |
| 20260507101522 | 48 | 359 | 3.0 | 5.0 | 0.00 | 0.19 | 0.01 | 80 | 1006.6 |
| 20260507100025 | 48 | 300 | 3.0 | 7.0 | 0.00 | 0.19 | 0.01 | 80 | 1006.8 |
| 20260507094508 | 48 | 4 | 3.0 | 7.0 | 0.00 | 0.19 | 0.01 | 80 | 1006.7 |
| 20260507093016 | 48 | 359 | 3.0 | 5.0 | 0.00 | 0.19 | 0.01 | 80 | 1006.8 |
| 20260507091529 | 48 | 321 | 3.0 | 9.0 | 0.00 | 0.19 | 0.01 | 80 | 1006.7 |
| 20260507090021 | 48 | 264 | 7.0 | 9.0 | 0.00 | 0.19 | 0.01 | 80 | 1007.0 |
| 20260507084538 | 49 | 311 | 3.0 | 7.0 | 0.00 | 0.19 | 0.01 | 83 | 1006.8 |
| 20260507083012 | 49 | 298 | 2.0 | 6.0 | 0.00 | 0.19 | 0.01 | 83 | 1006.7 |
| 20260507081516 | 49 | 288 | 2.0 | 4.0 | 0.00 | 0.19 | 0.01 | 81 | 1006.5 |
| 20260507080021 | 50 | 22 | 1.0 | 5.0 | 0.00 | 0.19 | 0.01 | 80 | 1006.4 |
| 20260507074526 | 50 | 303 | 3.0 | 9.0 | 0.00 | 0.19 | 0.01 | 79 | 1006.5 |
| 20260507073026 | 51 | 293 | 5.0 | 12.0 | 0.00 | 0.19 | 0.01 | 78 | 1007.0 |
| 20260507071520 | 51 | 302 | 3.0 | 9.0 | 0.00 | 0.19 | 0.01 | 79 | 1006.2 |
| 20260507070020 | 51 | 335 | 4.0 | 8.0 | 0.00 | 0.19 | 0.01 | 83 | 1006.0 |
| 20260507064524 | 52 | 309 | 2.0 | 4.0 | 0.00 | 0.19 | 0.01 | 84 | 1005.8 |
| 20260507063028 | 52 | 311 | 4.0 | 6.0 | 0.00 | 0.19 | 0.01 | 83 | 1005.8 |
| 20260507061528 | 52 | 339 | 2.0 | 3.0 | 0.00 | 0.19 | 0.01 | 83 | 1005.9 |
| 20260507060021 | 52 | 289 | 2.0 | 5.0 | 0.00 | 0.19 | 0.01 | 82 | 1006.0 |
| 20260507054522 | 52 | 360 | 3.0 | 7.0 | 0.00 | 0.19 | 0.01 | 81 | 1006.3 |
| 20260507053004 | 52 | 335 | 4.0 | 12.0 | 0.00 | 0.19 | 0.01 | 80 | 1006.4 |
| 20260507051509 | 52 | 285 | 3.0 | 10.0 | 0.01 | 0.19 | 0.01 | 82 | 1006.2 |
| 20260507050033 | 53 | 325 | 5.0 | 9.0 | 0.01 | 0.19 | 0.01 | 82 | 1006.8 |
| 20260507044513 | 53 | 293 | 4.0 | 11.0 | 0.03 | 0.19 | 0.01 | 83 | 1006.3 |
| 20260507043003 | 54 | 349 | 3.0 | 14.0 | 0.03 | 0.19 | 0.01 | 84 | 1006.5 |
| 20260507041511 | 55 | 9 | 5.0 | 10.0 | 0.02 | 0.18 | 0.00 | 86 | 1006.4 |
| 20260507040010 | 56 | 305 | 3.0 | 10.0 | 0.02 | 0.18 | 0.00 | 88 | 1006.2 |
| 20260507034513 | 57 | 285 | 2.0 | 12.0 | 0.00 | 0.16 | 0.16 | 85 | 1006.1 |
| 20260507033014 | 58 | 23 | 3.0 | 12.0 | 0.00 | 0.16 | 0.16 | 85 | 1005.8 |
| 20260507031507 | 58 | 360 | 2.0 | 12.0 | 0.00 | 0.16 | 0.16 | 88 | 1005.4 |
| 20260507030008 | 59 | 293 | 8.0 | 14.0 | 0.00 | 0.16 | 0.16 | 93 | 1005.2 |
| 20260507024515 | 59 | 262 | 3.0 | 5.0 | 0.00 | 0.16 | 0.16 | 93 | 1005.2 |
| 20260507023016 | 59 | 266 | 4.0 | 9.0 | 0.00 | 0.16 | 0.16 | 93 | 1005.0 |
| 20260507021523 | 59 | 269 | 3.0 | 6.0 | 0.00 | 0.16 | 0.16 | 92 | 1004.9 |
| 20260507020008 | 59 | 271 | 3.0 | 7.0 | 0.00 | 0.16 | 0.16 | 92 | 1004.7 |
| 20260507014511 | 59 | 226 | 3.0 | 6.0 | 0.00 | 0.16 | 0.16 | 92 | 1004.8 |
| 20260507013016 | 59 | 197 | 4.0 | 9.0 | 0.00 | 0.16 | 0.16 | 92 | 1004.8 |
| 20260507011523 | 59 | 213 | 4.0 | 10.0 | 0.00 | 0.16 | 0.16 | 92 | 1004.9 |
| 20260507010030 | 59 | 219 | 5.0 | 10.0 | 0.00 | 0.16 | 0.16 | 93 | 1004.9 |
| 20260507004512 | 59 | 181 | 2.0 | 8.0 | 0.00 | 0.16 | 0.16 | 93 | 1004.8 |
| 20260507003016 | 59 | 240 | 4.0 | 10.0 | 0.00 | 0.16 | 0.16 | 93 | 1004.8 |
| 20260507001518 | 59 | 205 | 3.0 | 8.0 | 0.00 | 0.16 | 0.16 | 92 | 1004.6 |
| 20260507000025 | 59 | 232 | 3.0 | 11.0 | 0.01 | 0.16 | 0.16 | 93 | 1004.7 |
| 20260506234524 | 59 | 238 | 4.0 | 9.0 | 0.03 | 0.16 | 0.16 | 92 | 1004.7 |
| 20260506233014 | 59 | 190 | 5.0 | 10.0 | 0.05 | 0.16 | 0.16 | 92 | 1004.6 |
| 20260506231520 | 59 | 196 | 4.0 | 11.0 | 0.06 | 0.16 | 0.16 | 92 | 1004.6 |
| 20260506230024 | 59 | 229 | 4.0 | 7.0 | 0.05 | 0.15 | 0.15 | 92 | 1004.7 |
| 20260506224524 | 59 | 211 | 3.0 | 12.0 | 0.04 | 0.13 | 0.13 | 92 | 1004.8 |
| 20260506223024 | 59 | 271 | 4.0 | 10.0 | 0.04 | 0.11 | 0.11 | 91 | 1004.6 |
| 20260506221516 | 59 | 193 | 4.0 | 11.0 | 0.03 | 0.10 | 0.10 | 91 | 1004.8 |
| 20260506220022 | 59 | 220 | 8.0 | 15.0 | 0.03 | 0.10 | 0.10 | 90 | 1004.8 |
| 20260506214522 | 60 | 221 | 4.0 | 17.0 | 0.03 | 0.09 | 0.09 | 90 | 1004.9 |
| 20260506213025 | 60 | 148 | 6.0 | 16.0 | 0.02 | 0.07 | 0.07 | 89 | 1004.8 |
| 20260506211538 | 60 | 169 | 5.0 | 15.0 | 0.02 | 0.07 | 0.07 | 90 | 1005.1 |
| 20260506210031 | 60 | 271 | 4.0 | 19.0 | 0.03 | 0.07 | 0.07 | 89 | 1005.3 |
| 20260506204531 | 60 | 225 | 7.0 | 13.0 | 0.02 | 0.06 | 0.06 | 89 | 1005.4 |
| 20260506203007 | 61 | 252 | 5.0 | 14.0 | 0.01 | 0.05 | 0.05 | 89 | 1005.5 |
| 20260506201511 | 61 | 248 | 7.0 | 16.0 | 0.01 | 0.05 | 0.05 | 87 | 1005.4 |
| 20260506200018 | 62 | 221 | 5.0 | 15.0 | 0.01 | 0.04 | 0.04 | 85 | 1005.6 |
| 20260506194522 | 62 | 210 | 6.0 | 12.0 | 0.02 | 0.04 | 0.04 | 84 | 1005.7 |
| 20260506193003 | 63 | 221 | 5.0 | 12.0 | 0.04 | 0.04 | 0.04 | 84 | 1005.6 |
| 20260506191511 | 63 | 210 | 7.0 | 13.0 | 0.04 | 0.04 | 0.04 | 85 | 1005.7 |
| 20260506190016 | 63 | 205 | 1.0 | 8.0 | 0.03 | 0.03 | 0.03 | 84 | 1005.5 |
| 20260506184520 | 64 | 260 | 5.0 | 13.0 | 0.02 | 0.02 | 0.02 | 81 | 1005.9 |
| 20260506183024 | 66 | 270 | 4.0 | 11.0 | 0.00 | 0.00 | 0.00 | 76 | 1005.9 |
| 20260506181526 | 69 | 266 | 6.0 | 18.0 | 0.00 | 0.00 | 0.00 | 66 | 1006.0 |
| 20260506180014 | 70 | 239 | 12.0 | 19.0 | 0.00 | 0.00 | 0.00 | 60 | 1005.9 |
| 20260506174515 | 71 | 239 | 10.0 | 20.0 | 0.00 | 0.00 | 0.00 | 56 | 1005.8 |
| 20260506173038 | 72 | 233 | 10.0 | 19.0 | 0.00 | 0.00 | 0.00 | 54 | 1005.8 |
| 20260506171537 | 72 | 276 | 8.0 | 19.0 | 0.00 | 0.00 | 0.00 | 55 | 1005.7 |
| 20260506170011 | 72 | 262 | 7.0 | 22.0 | 0.00 | 0.00 | 0.00 | 56 | 1005.8 |
| 20260506164517 | 71 | 237 | 6.0 | 16.0 | 0.00 | 0.00 | 0.00 | 57 | 1006.0 |
| 20260506163027 | 71 | 195 | 14.0 | 28.0 | 0.00 | 0.00 | 0.00 | 57 | 1006.2 |
| 20260506161526 | 70 | 217 | 6.0 | 16.0 | 0.00 | 0.00 | 0.00 | 60 | 1006.5 |
| 20260506160011 | 70 | 244 | 9.0 | 14.0 | 0.00 | 0.00 | 0.00 | 61 | 1006.9 |
| 20260506154514 | 69 | 252 | 5.0 | 17.0 | 0.00 | 0.00 | 0.00 | 62 | 1007.3 |
| 20260506153023 | 69 | 227 | 4.0 | 16.0 | 0.00 | 0.00 | 0.00 | 64 | 1007.7 |
| 20260506151524 | 69 | 252 | 10.0 | 18.0 | 0.00 | 0.00 | 0.00 | 64 | 1007.8 |
| 20260506150027 | 68 | 241 | 12.0 | 18.0 | 0.00 | 0.00 | 0.00 | 63 | 1007.9 |
| 20260506144514 | 68 | 219 | 6.0 | 16.0 | 0.00 | 0.00 | 0.00 | 64 | 1008.0 |
| 20260506143024 | 68 | 288 | 9.0 | 19.0 | 0.00 | 0.00 | 0.00 | 65 | 1008.0 |